Weather History for K9L2 - August, 2014

Change the Weather History Date:

Saturday, August 16, 2014

  Actual Average (KEDW) Record (KEDW)
Temperature  
Mean Temperature 83 °F -  
Max Temperature 102 °F 97 °F 109 °F (2002)
Min Temperature 66 °F 63 °F 53 °F (1999)
Cooling Degree Days 18    
Growing Degree Days 33 (Base 50)    
Moisture  
Dew Point 35 °F    
Average Humidity 19    
Maximum Humidity 37    
Minimum Humidity 7    
Precipitation  
Precipitation 0.00 in - - ()
Sea Level Pressure  
Sea Level Pressure 29.94 in    
Wind  
Wind Speed 11 mph (SW)    
Max Wind Speed 18 mph    
Max Gust Speed 28 mph    
Visibility 10 miles    
Events      
Averages and records for this station are not official NWS values.
T = Trace of Precipitation, MM = Missing Value Source: NWS Daily Summary

Daily Weather History Graph

Daily Weather History Graph

Search for Another Location

Airport or City:

Trip Planner

Search our weather history database for the weather conditions in past years. The results will help you decide how hot, cold, wet, or windy it might be!

Date:

Astronomy

Aug. 16, 2014 Rise Set
Actual Time 6:12 AM PDT 7:38 PM PDT
Civil Twilight 5:45 AM PDT 8:05 PM PDT
Nautical Twilight 5:13 AM PDT 8:37 PM PDT
Astronomical Twilight 4:39 AM PDT 9:10 PM PDT
Moon 11:43 PM PDT (8/16) 12:46 PM PDT (8/16)
Length of Visible Light 14h 19m
Length of Day
13h 26m
Waning Gibbous, 58% of the Moon is Illuminated
Aug 16
Waning Gibbous
Aug 17
Last Quarter
Aug 25
New
Sep 2
First Quarter
Sep 8
Full

Hourly Weather History & Observations

Time (PDT) Temp. Dew Point Humidity Pressure Visibility Wind Dir Wind Speed Gust Speed Precip Events Conditions
12:55 AM 77.0 °F 43.0 °F 30% 29.94 in 10.0 mi SW 11.5 mph - N/A   Clear
1:55 AM 77.0 °F 44.1 °F 31% 29.95 in 10.0 mi SW 13.8 mph - N/A   Clear
2:55 AM 75.9 °F 42.1 °F 30% 29.94 in 10.0 mi WSW 11.5 mph - N/A   Clear
3:55 AM 75.9 °F 41.0 °F 29% 29.94 in 10.0 mi WSW 11.5 mph - N/A   Clear
4:55 AM 75.0 °F 39.9 °F 28% 29.95 in 10.0 mi WSW 6.9 mph - N/A   Clear
5:55 AM 66.9 °F 39.0 °F 36% 29.97 in 10.0 mi Calm Calm - N/A   Clear
6:55 AM 66.0 °F 39.0 °F 37% 29.99 in 10.0 mi SE 3.5 mph - N/A   Clear
7:55 AM 72.0 °F 39.0 °F 30% 30.00 in 10.0 mi South 9.2 mph - N/A   Clear
8:55 AM 82.0 °F 36.0 °F 19% 30.00 in 10.0 mi NNW 4.6 mph - N/A   Clear
9:55 AM 87.1 °F 37.9 °F 18% 30.00 in 10.0 mi South 11.5 mph - N/A   Clear
10:55 AM 91.0 °F 37.0 °F 15% 29.99 in 10.0 mi SSW 9.2 mph 18.4 mph N/A   Clear
11:55 AM 93.0 °F 34.0 °F 12% 29.97 in 10.0 mi SSW 9.2 mph - N/A   Clear
12:55 PM 97.0 °F 28.9 °F 9% 29.95 in 10.0 mi SSW 10.4 mph 19.6 mph N/A   Clear
1:55 PM 99.0 °F 28.0 °F 8% 29.92 in 10.0 mi WSW 15.0 mph 20.7 mph N/A   Clear
2:55 PM 100.9 °F 28.0 °F 8% 29.90 in 10.0 mi WNW 11.5 mph 19.6 mph N/A   Clear
3:55 PM 100.9 °F 27.0 °F 7% 29.87 in 10.0 mi West 12.7 mph 20.7 mph N/A   Clear
4:55 PM 100.9 °F 25.0 °F 7% 29.87 in 10.0 mi West 12.7 mph 20.7 mph N/A   Clear
5:55 PM 99.0 °F 25.0 °F 7% 29.87 in 10.0 mi West 18.4 mph 23.0 mph N/A   Clear
6:55 PM 93.9 °F 33.1 °F 12% 29.88 in 10.0 mi West 17.3 mph 27.6 mph N/A   Clear
7:55 PM 90.0 °F 33.1 °F 13% 29.90 in 10.0 mi West 13.8 mph - N/A   Clear
8:55 PM 86.0 °F 30.0 °F 13% 29.91 in 10.0 mi SW 9.2 mph - N/A   Clear
9:55 PM 82.9 °F 36.0 °F 19% 29.92 in 10.0 mi SW 10.4 mph - N/A   Clear
10:55 PM 81.0 °F 34.0 °F 18% 29.91 in 10.0 mi SW 9.2 mph - N/A   Clear
11:55 PM 75.9 °F 37.0 °F 24% 29.92 in 10.0 mi SSW 10.4 mph - N/A   Clear